Zurück zum Katalog

DELTA 1 DEB

AktivSSO
NORAD 10646·DEBRIS·🇺🇸 United States

Gestartet Jul 29, 1976 von Vandenberg Space Force Base

Loading…

Nächste Überflüge (nächste 24 Stunden)

TLE

AktuellSource: Space-Track

Epoche: Sep 14, 2026, 08:01 UTC

1 10646U 76077G   26257.33458455 -.00000041  00000-0  44654-4 0  9996
2 10646 102.6648 208.0914 0143350 212.1424 304.7244 12.14468757223154

Verfolge DELTA 1 DEB in Echtzeit mit AllMySat

Download on the App Store